Flag for U.S.A. Weather past 2 weeks in Kalamazoo, Michigan, U.S.A.

Now
49 °F

Sunny.


Feels Like: 44 °F
Forecast: 35 / 47 °F
Wind: 13 mph from Southwest

Location: Kalamazoo / Battle Creek International Airport

Current Time: Dec 26, 2014 at 3:05:56 PM

Latest Report: Dec 26, 2014 at 1:53 PM


Visibility: 10 mi

Pressure: 30.06 "Hg

Humidity: 61%

Dew point: 36 °F

Location of KalamazooLocation

Historic Weather in Kalamazoo — Graph

°F

Kalamazoo temperature yesterday

Maximum temperature yesterday: 38 °F (at 3:53 PM)
Minimum temperature yesterday: 34 °F (at 6:53 PM)
Average temperature yesterday: 36 °F

Past Weeks' High & Low Weather Summary

 TemperatureHumidityPressure
High53 °F (Dec 14, 12:57 PM)96% (Dec 12, 5:53 PM)30.34 "Hg (Dec 12, 5:53 PM)
Low18 °F (Dec 20, 6:53 AM)60% (Dec 11, 1:53 PM)29.39 "Hg (Dec 24, 4:53 PM)
Average36 °F82%30.05 "Hg
* Reported Dec 11 1:53 PM — Dec 26 1:53 PM, Kalamazoo, Weather by CustomWeather, © 2014

Note: Actual official high and low records may vary slightly from our data, if they occured in-between our weather recording intervals... More about our weather records

Advertising

Kalamazoo weather history for previous 24 hours

 ConditionsComfort  
Time TempWeatherWind HumidityBarometerVisibility
1:53 PM
Dec 26
49 °FSunny.13 mph61%30.06 "Hg10 mi
12:53 PM47 °FSunny.13 mph64%30.06 "Hg10 mi
11:53 AM44 °FSunny.9 mph71%30.09 "Hg10 mi
10:53 AM41 °FSunny.12 mph76%30.11 "Hg10 mi
9:53 AM37 °FSunny.10 mph86%30.11 "Hg10 mi
8:53 AM34 °FSunny.10 mph88%30.10 "Hg10 mi
7:53 AM33 °FClear.9 mph88%30.09 "Hg10 mi
6:53 AM33 °FClear.9 mph88%30.09 "Hg10 mi
5:53 AM34 °FClear.10 mph85%30.09 "Hg10 mi
4:53 AM35 °FClear.9 mph82%30.08 "Hg10 mi
3:53 AM35 °FClear.9 mph85%30.09 "Hg10 mi
2:53 AM36 °FClear.10 mph82%30.11 "Hg10 mi
1:53 AM35 °FClear.8 mph85%30.10 "Hg10 mi
12:53 AM35 °FClear.9 mph85%30.10 "Hg10 mi
11:53 PM
Dec 25
35 °FClear.12 mph82%30.09 "Hg10 mi
10:53 PM35 °FClear.12 mph82%30.07 "Hg10 mi
9:53 PM35 °FClear.9 mph82%30.09 "Hg10 mi
8:53 PM35 °FClear.12 mph82%30.10 "Hg10 mi
7:53 PM34 °FClear.9 mph82%30.09 "Hg10 mi
6:53 PM34 °FClear.12 mph82%30.08 "Hg10 mi
5:53 PM35 °FClear.8 mph75%30.06 "Hg10 mi
4:53 PM37 °FPassing clouds.13 mph73%30.05 "Hg10 mi
3:53 PM38 °FOvercast.13 mph70%30.04 "Hg10 mi
Weather by CustomWeather, © 2014

See weather overviewHow to use our weather pages